+ View the NASA Portal
+ Center for Near-Earth Object Studies
IMPORTANT:
The SSD Announcement email list is now available. Major changes are coming in the near future, including possible hostname and/or URL changes. To be notified of such changes, subscribe to this email list.
Please visit
this page
for more details.
Don't show this message again
JPL Small-Body Database Browser
Search:
[
help
]
277745 (2006 DK107)
Classification:
Main-belt Asteroid
SPK-ID:
2277745
[
Ephemeris
|
Orbit Diagram
|
Orbital Elements
|
Mission Design
|
Physical Parameters
|
Discovery Circumstances
]
[ show orbit diagram ]
Orbital Elements at Epoch 2458600.5 (2019-Apr-27.0) TDB
Reference:
JPL 14
(heliocentric ecliptic J2000)
Element
Value
Uncertainty (1-sigma)
Units
e
.03049880226317899
6.0729e-08
a
2.756069977476739
4.1275e-08
au
q
2.672013144210192
1.8385e-07
au
i
11.33267913900709
6.8161e-06
deg
node
162.5670160004932
2.5206e-05
deg
peri
213.9283550498947
9.2955e-05
deg
M
104.7019610860059
8.8182e-05
deg
t
p
2458114.444230441181
(2017-Dec-26.94423044)
0.00041123
TDB
period
1671.220626874792
4.58
3.7543e-05
1.028e-07
d
yr
n
.2154114149926485
4.839e-09
deg/d
Q
2.840126810743286
4.2534e-08
au
Orbit Determination Parameters
# obs. used (total)
157
data-arc span
5110 days (13.99 yr)
first obs. used
2003-09-29
last obs. used
2017-09-25
planetary ephem.
DE431
SB-pert. ephem.
SB431-N16
condition code
0
norm. resid. RMS
.72871
source
ORB
producer
Otto Matic
solution date
2017-Oct-09 18:50:47
Additional Information
Earth MOID
= 1.67367 au
Jupiter MOID
= 2.29034 au
T_jup
= 3.314
[ show covariance matrix ]
[
Ephemeris
|
Orbit Diagram
|
Orbital Elements
|
Mission Design
|
Physical Parameters
|
Discovery Circumstances
]
Physical Parameter Table
Parameter
Symbol
Value
Units
Sigma
Reference
Notes
absolute magnitude
H
16.4
n/a
MPO423066
277745 (2006 DK107)
Discovered 2006-Feb-25 by Mt. Lemmon Survey at Mount Lemmon
Reference:
20110517/Numbers.arc
Last Updated:
2011-05-20
[
Ephemeris
|
Orbit Diagram
|
Orbital Elements
|
Mission Design
|
Physical Parameters
|
Discovery Circumstances
]
2019-Dec-05 15:21 UT
(server date/time)
Site Manager:
Ryan S. Park
Webmaster
:
Alan B. Chamberlin